This is the latest recevied weather packets stored in our database for station/object F5ZQC-13. If no packets are shown the sender has not sent any weather packets the latest 1 day(s).
| Time | Temp. | Humidity | Pressure | Rain* | Wind** | Luminosity | Snow |
|---|---|---|---|---|---|---|---|
| 1778073256 | 24.44° C | 24% | 1009 hPa | 0 mm | - | - | - |
| 1778073138 | 24.44° C | 23% | 1009 hPa | 0 mm | - | - | - |
| 1778073012 | 23.89° C | 23% | 1009 hPa | 0 mm | - | - | - |
| 1778072278 | 23.33° C | 24% | 1009 hPa | 0 mm | - | - | - |
| 1778071793 | 22.78° C | 23% | 1009.1 hPa | 0 mm | - | - | - |
| 1778071669 | 22.78° C | 22% | 1009.2 hPa | 0 mm | - | - | - |
| 1778071544 | 22.78° C | 22% | 1009.2 hPa | 0 mm | - | - | - |
| 1778071423 | 22.78° C | 22% | 1009.2 hPa | 0 mm | - | - | - |
| 1778071301 | 23.33° C | 22% | 1009.1 hPa | 0 mm | - | - | - |
| 1778071181 | 23.33° C | 23% | 1009.1 hPa | 0 mm | - | - | - |
| 1778068711 | 23.89° C | 22% | 1009.1 hPa | 0 mm | - | - | - |
| 1778068019 | 24.44° C | 21% | 1009.3 hPa | 0 mm | - | - | - |
| 1778067895 | 25° C | 22% | 1009.4 hPa | 0 mm | - | - | - |
| 1778066796 | 24.44° C | 25% | 1009.4 hPa | 0 mm | - | - | - |
| 1778065938 | 23.89° C | 26% | 1009.6 hPa | 0 mm | - | - | - |
| 1778064011 | 22.78° C | 27% | 1009.8 hPa | 0 mm | - | - | - |
| 1778063890 | 22.78° C | 27% | 1009.8 hPa | 0 mm | - | - | - |
| 1778063644 | 22.78° C | 27% | 1009.8 hPa | 0 mm | - | - | - |
| 1778061805 | 23.33° C | 28% | 1009.8 hPa | 0 mm | - | - | - |
| 1778061683 | 23.33° C | 28% | 1009.9 hPa | 0 mm | - | - | - |
| 1778061442 | 23.33° C | 31% | 1009.9 hPa | 0 mm | - | - | - |
| 1778060583 | 22.22° C | 31% | 1009.9 hPa | 0 mm | - | - | - |
| 1778058904 | 21.11° C | 33% | 1009.9 hPa | 0 mm | - | - | - |
| 1778058013 | 21.11° C | 33% | 1009.8 hPa | 0 mm | - | - | - |
| 1778057034 | 20.56° C | 35% | 1009.6 hPa | 0 mm | - | - | - |
* Rain since midnight (hover to see other rain measurements)
** Current wind speed in m/s (hover to see current wind gust speed)